When you browse on this site, cookies collect data to enhance your experience and personalize the content and advertising you see.
Visit our Privacy Policy to learn more. By continuing to use the site, you agree to this use of cookies and data.
  • In Romania
  • List of Countries
  • For 7 days
  • Water Temperature
  • Satellite Maps
  • Weather Map
  • Weather Widgets
  • user-avatar
    Login

    Hourly Weather Ajuterique

    Today, 18 July, Thursday

    Time Temperature Precipitation Wind Pressure Humidity
    00:00 +22°C° 0 mm 1 mps 699 mmHg 95%
    01:00 +22°C° 0 mm 1 mps 698 mmHg 96%
    02:00 +22°C° 0 mm 1 mps 698 mmHg 96%
    03:00 +22°C° 0 mm 1 mps 698 mmHg 96%
    04:00 +22°C° 0 mm 1 mps 698 mmHg 95%
    05:00 +22°C° 0 mm 1 mps 698 mmHg 95%
    06:00 +23°C° 0 mm 1 mps 699 mmHg 94%
    07:00 +24°C° 0 mm 1 mps 699 mmHg 84%
    08:00 +26°C° 0 mm 2 mps 700 mmHg 73%
    09:00 +28°C° 0 mm 2 mps 700 mmHg 63%
    10:00 +29°C° 0 mm 2 mps 700 mmHg 55%
    11:00 +30°C° 0 mm 2 mps 700 mmHg 48%
    12:00 +31°C° 0 mm 3 mps 700 mmHg 41%
    13:00 +31°C° 0 mm 3 mps 699 mmHg 41%
    14:00 +33°C° 0 mm 3 mps 698 mmHg 41%
    15:00 +33°C° 0 mm 3 mps 698 mmHg 41%
    16:00 +30°C° 0 mm 2 mps 698 mmHg 50%
    17:00 +28°C° 0 mm 2 mps 697 mmHg 59%
    18:00 +26°C° 0 mm 1 mps 697 mmHg 68%
    19:00 +25°C° 0 mm 1 mps 698 mmHg 73%
    20:00 +24°C° 0 mm 1 mps 698 mmHg 79%
    21:00 +23°C° 0 mm 1 mps 699 mmHg 84%
    22:00 +22°C° 0 mm 1 mps 698 mmHg 87%
    23:00 +22°C° 0 mm 1 mps 698 mmHg 90%

    Tomorrow, 19 July, Friday

    Time Temperature Precipitation Wind Pressure Humidity
    00:00 +22°C° 0 mm 1 mps 698 mmHg 93%
    01:00 +21°C° 0 mm 1 mps 698 mmHg 94%
    02:00 +21°C° 0 mm 1 mps 698 mmHg 95%
    03:00 +21°C° 0 mm 1 mps 697 mmHg 96%
    04:00 +21°C° 0 mm 1 mps 697 mmHg 97%
    05:00 +21°C° 0 mm 1 mps 697 mmHg 97%
    06:00 +21°C° 0 mm 1 mps 698 mmHg 97%
    07:00 +23°C° 0 mm 1 mps 698 mmHg 87%
    08:00 +25°C° 0 mm 1 mps 699 mmHg 78%
    09:00 +27°C° 0 mm 2 mps 700 mmHg 68%
    10:00 +29°C° 0 mm 2 mps 700 mmHg 61%
    11:00 +30°C° 0 mm 2 mps 700 mmHg 55%
    12:00 +32°C° 0 mm 2 mps 700 mmHg 48%
    13:00 +32°C° 0 mm 2 mps 699 mmHg 48%
    14:00 +32°C° 0 mm 2 mps 698 mmHg 48%
    15:00 +32°C° 0 mm 2 mps 697 mmHg 48%
    16:00 +30°C° 0.1 mm 2 mps 697 mmHg 58%
    17:00 +28°C° 0.1 mm 2 mps 697 mmHg 67%
    18:00 +27°C° 0.1 mm 1 mps 697 mmHg 77%
    19:00 +26°C° 0.1 mm 1 mps 697 mmHg 82%
    20:00 +24°C° 0.1 mm 1 mps 698 mmHg 88%
    21:00 +23°C° 0.1 mm 1 mps 698 mmHg 93%
    22:00 +23°C° 0 mm 1 mps 698 mmHg 94%
    23:00 +22°C° 0 mm 1 mps 698 mmHg 95%

    Day after tomorrow, 20 July, Saturday

    Time Temperature Precipitation Wind Pressure Humidity
    00:00 +22°C° 0 mm 1 mps 698 mmHg 96%
    01:00 +22°C° 0 mm 1 mps 697 mmHg 96%
    02:00 +22°C° 0 mm 1 mps 697 mmHg 96%
    03:00 +22°C° 0 mm 1 mps 697 mmHg 96%
    04:00 +22°C° 0 mm 1 mps 697 mmHg 96%
    05:00 +22°C° 0 mm 1 mps 697 mmHg 97%
    06:00 +22°C° 0 mm 1 mps 697 mmHg 97%
    07:00 +24°C° 0 mm 1 mps 698 mmHg 88%
    08:00 +26°C° 0 mm 2 mps 699 mmHg 78%
    09:00 +28°C° 0 mm 2 mps 699 mmHg 69%
    10:00 +29°C° 0 mm 2 mps 699 mmHg 64%
    11:00 +31°C° 0 mm 2 mps 699 mmHg 59%
    12:00 +32°C° 0 mm 2 mps 698 mmHg 54%
    13:00 +31°C° 1.4 mm 2 mps 698 mmHg 59%
    14:00 +30°C° 1.4 mm 2 mps 697 mmHg 63%
    15:00 +30°C° 1.4 mm 2 mps 697 mmHg 68%
    16:00 +28°C° 1.6 mm 2 mps 697 mmHg 75%
    17:00 +27°C° 1.6 mm 2 mps 697 mmHg 81%
    18:00 +25°C° 1.6 mm 1 mps 697 mmHg 88%
    19:00 +25°C° 0.1 mm 1 mps 697 mmHg 89%
    20:00 +24°C° 0.1 mm 1 mps 697 mmHg 90%
    21:00 +24°C° 0.1 mm 1 mps 698 mmHg 91%
    22:00 +23°C° 0 mm 1 mps 698 mmHg 93%
    23:00 +23°C° 0 mm 1 mps 698 mmHg 94%

    21 July, Sunday

    Time Temperature Precipitation Wind Pressure Humidity
    00:00 +23°C° 0 mm 1 mps 698 mmHg 96%
    01:00 +22°C° 0 mm 1 mps 697 mmHg 96%
    02:00 +22°C° 0 mm 1 mps 697 mmHg 96%
    03:00 +22°C° 0 mm 1 mps 697 mmHg 96%
    04:00 +22°C° 0 mm 1 mps 697 mmHg 96%
    05:00 +22°C° 0 mm 1 mps 697 mmHg 96%
    06:00 +22°C° 0 mm 1 mps 697 mmHg 96%
    07:00 +24°C° 0 mm 1 mps 698 mmHg 86%
    08:00 +26°C° 0 mm 2 mps 699 mmHg 76%
    09:00 +29°C° 0 mm 2 mps 699 mmHg 67%
    10:00 +30°C° 0 mm 2 mps 699 mmHg 62%
    11:00 +31°C° 0 mm 2 mps 699 mmHg 57%
    12:00 +32°C° 0 mm 2 mps 699 mmHg 52%
    13:00 +32°C° 0.3 mm 2 mps 698 mmHg 52%
    14:00 +32°C° 0.3 mm 2 mps 698 mmHg 51%
    15:00 +32°C° 0.3 mm 2 mps 697 mmHg 51%
    16:00 +31°C° 0.4 mm 2 mps 697 mmHg 59%
    17:00 +29°C° 0.4 mm 1 mps 697 mmHg 67%
    18:00 +27°C° 0.4 mm 1 mps 697 mmHg 75%
    19:00 +26°C° 0.2 mm 1 mps 697 mmHg 80%
    20:00 +25°C° 0.2 mm 1 mps 698 mmHg 85%
    21:00 +23°C° 0.2 mm 1 mps 698 mmHg 90%
    22:00 +21°C° 0.1 mm 0 mps 698 mmHg 91%
    23:00 +21°C° 0.1 mm 0 mps 698 mmHg 92%

    22 July, Monday

    Time Temperature Precipitation Wind Pressure Humidity
    00:00 +20°C° 0.1 mm 0 mps 698 mmHg 94%
    01:00 +20°C° 0 mm 0 mps 698 mmHg 94%
    02:00 +20°C° 0 mm 0 mps 697 mmHg 95%
    03:00 +22°C° 0 mm 1 mps 697 mmHg 95%
    04:00 +22°C° 0 mm 1 mps 697 mmHg 96%
    05:00 +22°C° 0 mm 1 mps 698 mmHg 96%
    06:00 +22°C° 0 mm 1 mps 698 mmHg 96%
    07:00 +24°C° 0 mm 1 mps 698 mmHg 87%
    08:00 +26°C° 0 mm 1 mps 699 mmHg 77%
    09:00 +28°C° 0 mm 1 mps 700 mmHg 68%
    10:00 +30°C° 0 mm 2 mps 700 mmHg 59%
    11:00 +31°C° 0 mm 2 mps 700 mmHg 50%
    12:00 +34°C° 0 mm 2 mps 699 mmHg 41%
    13:00 +34°C° 0 mm 2 mps 699 mmHg 41%
    14:00 +34°C° 0 mm 3 mps 698 mmHg 40%
    15:00 +34°C° 0 mm 3 mps 698 mmHg 39%
    16:00 +31°C° 0.1 mm 2 mps 698 mmHg 49%
    17:00 +29°C° 0.1 mm 2 mps 698 mmHg 59%
    18:00 +26°C° 0.1 mm 1 mps 697 mmHg 70%
    19:00 +25°C° 0 mm 1 mps 698 mmHg 75%
    20:00 +24°C° 0 mm 1 mps 698 mmHg 80%
    21:00 +23°C° 0 mm 1 mps 699 mmHg 85%
    22:00 +23°C° 0 mm 1 mps 699 mmHg 87%
    23:00 +22°C° 0 mm 1 mps 699 mmHg 89%

    23 July, Tuesday

    Time Temperature Precipitation Wind Pressure Humidity
    00:00 +20°C° 0 mm 0 mps 699 mmHg 91%
    01:00 +20°C° 0 mm 0 mps 698 mmHg 92%
    02:00 +19°C° 0 mm 0 mps 698 mmHg 94%
    03:00 +19°C° 0 mm 0 mps 698 mmHg 95%
    04:00 +19°C° 0 mm 0 mps 698 mmHg 95%
    05:00 +19°C° 0 mm 0 mps 698 mmHg 95%
    06:00 +19°C° 0 mm 0 mps 698 mmHg 95%
    07:00 +24°C° 0 mm 1 mps 699 mmHg 81%
    08:00 +27°C° 0 mm 1 mps 700 mmHg 67%
    09:00 +29°C° 0 mm 1 mps 700 mmHg 53%
    10:00 +31°C° 0 mm 1 mps 700 mmHg 46%
    11:00 +32°C° 0 mm 2 mps 700 mmHg 40%
    12:00 +34°C° 0 mm 2 mps 700 mmHg 34%
    13:00 +34°C° 0 mm 2 mps 699 mmHg 34%
    14:00 +34°C° 0 mm 2 mps 698 mmHg 34%
    15:00 +35°C° 0 mm 2 mps 698 mmHg 35%
    16:00 +31°C° 0 mm 2 mps 698 mmHg 44%
    17:00 +29°C° 0 mm 2 mps 698 mmHg 54%
    18:00 +27°C° 0 mm 1 mps 698 mmHg 64%
    19:00 +26°C° 0.1 mm 1 mps 698 mmHg 70%
    20:00 +25°C° 0.1 mm 1 mps 699 mmHg 75%
    21:00 +21°C° 0.1 mm 0 mps 699 mmHg 81%
    22:00 +21°C° 0 mm 0 mps 699 mmHg 83%
    23:00 +20°C° 0 mm 0 mps 699 mmHg 85%
    Show more